Tracking 31027 objects as of 19-Jul-2025
HD Live streaming from Space Station
objects crossing your sky now

METEOR 2-17 DEB

Track METEOR 2-17 DEB now!
10-day predictions


NORAD ID: 35371
Int'l Code: 1988-005AF
Perigee: 871.8 km
Apogee: 903.0 km
Inclination: 82.5 °
Period: 102.6 minutes
Semi major axis: 7258 km
RCS: 0.0006 m2 (small)
Launch date: January 30, 1988
Source: Commonwealth of Independent States (former USSR) (CIS)
Launch site: PLESETSK MISSILE AND SPACE COMPLEX (PKMTR)

Note: This is SATELLITE DEBRIS
Your satellite tracking list
Your tracking list is empty




NASA's NSSDC Master Catalog

Two Line Element Set (TLE):
1 35371U 88005AF  25197.13698525  .00001454  00000-0  90983-3 0  9999
2 35371  82.5126 147.7095 0021463  84.4160 275.9458 14.03919788613333
Source of the keplerian elements: AFSPC